Yuma, AZ

5:33 PM MST on August 27, 2016 (GMT -0700)
Yuma Marine Corps Air Station

Weather History for KNYL - April, 2012

Change the Weather History Date:

Sunday, April 1, 2012

  Actual Average Record
Temperature  
Mean Temperature 66 °F 70 °F  
Max Temperature 76 °F 83 °F 101 °F (2011)
Min Temperature 56 °F 56 °F 41 °F (1892)
Degree Days  
Heating Degree Days 0 1  
Month to date heating degree days 0 1  
Since 1 July heating degree days 688 674  
Cooling Degree Days 1 5  
Month to date cooling degree days 1 5  
Year to date cooling degree days 102 158  
Growing Degree Days 15 (Base 50)    
Moisture  
Dew Point 32 °F    
Average Humidity 35    
Maximum Humidity 55    
Minimum Humidity 14    
Precipitation  
Precipitation 0.00 in 0.01 in 0.40 in (1999)
Month to date precipitation 0.00 0.01  
Year to date precipitation 0.04 1.10  
Sea Level Pressure  
Sea Level Pressure 29.88 in    
Wind  
Wind Speed 14 mph (WNW)    
Max Wind Speed 28 mph    
Max Gust Speed 37 mph    
Visibility 10 miles    
Events      
T = Trace of Precipitation, MM = Missing Value Source: NWS Daily Summary

Daily Weather History Graph

Daily Weather History Graph

Search for Another Location

Airport or City:

Trip Planner

Search our weather history database for the weather conditions in past years. The results will help you decide how hot, cold, wet, or windy it might be!

Date:

Astronomy

Apr. 01, 2012 Rise Set
Actual Time 6:25 AM MST 6:58 PM MST
Civil Twilight 6:00 AM MST 7:23 PM MST
Nautical Twilight 5:31 AM MST 7:52 PM MST
Astronomical Twilight 5:02 AM MST 8:22 PM MST
Moon 1:50 PM MST (4/1) 2:47 AM MST (4/1)
Length of Visible Light 13h 22m
Length of Day
12h 33m
Waxing Gibbous, 70% of the Moon is Illuminated
Apr 1
Waxing Gibbous
Apr 6
Full
Apr 13
Last Quarter
Apr 21
New
Apr 29
First Quarter

Hourly Weather History & Observations

Time (MST) Temp. Dew Point Humidity Pressure Visibility Wind Dir Wind Speed Gust Speed Precip Events Conditions
12:55 AM 61.0 °F 41.0 °F 48% 29.85 in 10.0 mi WNW 15.0 mph - N/A   Clear
1:55 AM 61.0 °F 43.0 °F 52% 29.85 in 10.0 mi WNW 17.3 mph 26.5 mph N/A   Clear
2:55 AM 61.0 °F 44.1 °F 54% 29.84 in 10.0 mi WNW 17.3 mph 21.9 mph N/A   Clear
3:55 AM 62.1 °F 43.0 °F 50% 29.84 in 10.0 mi WNW 15.0 mph 26.5 mph N/A   Clear
4:55 AM 60.1 °F 43.0 °F 53% 29.86 in 10.0 mi WNW 12.7 mph 19.6 mph N/A   Clear
5:55 AM 59.0 °F 36.0 °F 42% 29.87 in 6.0 mi WNW 26.5 mph 33.4 mph N/A   Clear
6:55 AM 55.9 °F 33.1 °F 42% 29.91 in 10.0 mi WNW 13.8 mph 23.0 mph N/A   Clear
7:55 AM 57.9 °F 34.0 °F 41% 29.93 in 10.0 mi West 12.7 mph 18.4 mph N/A   Clear
8:55 AM 61.0 °F 30.9 °F 32% 29.94 in 10.0 mi West 18.4 mph 28.8 mph N/A   Clear
9:55 AM 63.0 °F 30.0 °F 29% 29.94 in 10.0 mi WNW 18.4 mph 25.3 mph N/A   Clear
10:55 AM 66.9 °F 28.9 °F 24% 29.94 in 10.0 mi NW 17.3 mph 23.0 mph N/A   Clear
11:55 AM 69.1 °F 28.9 °F 22% 29.92 in 10.0 mi WNW 10.4 mph 19.6 mph N/A   Clear
12:55 PM 72.0 °F 28.0 °F 20% 29.90 in 10.0 mi WNW 13.8 mph - N/A   Clear
1:55 PM 72.0 °F 25.0 °F 17% 29.89 in 10.0 mi West 9.2 mph - N/A   Clear
2:55 PM 73.0 °F 21.0 °F 14% 29.86 in 10.0 mi West 13.8 mph 21.9 mph N/A   Clear
3:55 PM 73.9 °F 23.0 °F 15% 29.85 in 10.0 mi WNW 10.4 mph 19.6 mph N/A   Clear
4:55 PM 75.0 °F 25.0 °F 16% 29.84 in 10.0 mi WNW 15.0 mph - N/A   Clear
5:55 PM 73.9 °F 24.1 °F 16% 29.84 in 10.0 mi West 13.8 mph - N/A   Clear
6:55 PM 71.1 °F 23.0 °F 16% 29.84 in 10.0 mi WNW 12.7 mph 21.9 mph N/A   Clear
7:55 PM 69.1 °F 23.0 °F 18% 29.87 in 10.0 mi NW 9.2 mph - N/A   Clear
8:55 PM 68.0 °F 24.1 °F 19% 29.88 in 10.0 mi NW 10.4 mph - N/A   Clear
9:02 PM - - N/A% - - North - - N/A   Unknown
9:55 PM 63.0 °F 33.1 °F 33% 29.90 in 10.0 mi West 11.5 mph - N/A   Clear
10:55 PM 62.1 °F 35.1 °F 37% 29.90 in 10.0 mi WNW 11.5 mph - N/A   Clear
11:55 PM 60.1 °F 36.0 °F 41% 29.91 in 10.0 mi WNW 10.4 mph - N/A   Clear